Location: Guferjoch
(46.7462°N, 8.4506°E)
Time: 00:30:16
(UTC+00:00)

COSMOS 2406 - Pass Details

Date: 14 July 2020
Orbit: 844 x 863 km, 71.0° (Epoch: 03 August)

Event Time Altitude Azimuth Distance (km) Brightness Sun altitude
Exits shadow 00:49:37 32° 172° (S) 1,451 3.9 -19.4°
Maximum altitude 00:52:07 55° 110° (ESE) 1,031 3.6 -19.3°
Drops below altitude 10° 00:57:44 10° 34° (NE) 2,510 6.8 -18.9°
Sets 01:00:14 0° 31° (NNE) 3,449 8.0 -18.8°
